500  
NZUS99 KTBW 170017  
RWRTPA  
FLORIDA REGIONAL WEATHER ROUNDUP  
NATIONAL WEATHER SERVICE TAMPA BAY RUSKIN FL  
700 PM EST WED JAN 16 2019  
 
NOTE: "FAIR" INDICATES FEW OR NO CLOUDS BELOW 12,000 FEET WITH NO  
SIGNIFICANT WEATHER AND/OR S TO VISIBILITY
.  
 
 
STATION/POSITION
 
 
 
FLZ042-048>051-055-056-060-061-170100-  
EXTRA STATIONS  
 
CITY SKY/WX TMP DP RH WIND PRES REMARKS
 
EVERGLADES CTY NOT AVBL  
CRYSTAL RIVER FAIR 46 43 87 CALM 30.25R  
SEBRING FAIR 54 43 67 N5 30.22R  
EGLIN AFB FAIR 48 40 74 S6 30.26R WCI 45  
CANAVERAL FAIR 54 47 77 NW8 30.21R  
 

 
FLZ001>010-012>015-170100-  
PANHANDLE FLORIDA  
 
CITY SKY/WX TMP DP RH WIND PRES REMARKS
 
PENSACOLA FAIR 50 41 71 SW7 30.27R WCI 47  
PENSACOLA NAS FAIR 46 42 86 CALM 30.27R  
MILTON NAS FAIR 44 40 85 CALM 30.26  
CRESTVIEW FAIR 44 39 82 CALM 30.28R  
VALPARAISO FAIR 51 43 74 CALM 30.26S  
MARY ESTHER CLEAR 52 42 69 CALM 30.26R  
PANAMA CITY FAIR 51 43 74 CALM 30.26R  
TYNDALL AFB FAIR 49 42 78 NW6 30.27R WCI 46  
APALACHICOLA FAIR 48 41 76 W6 30.27R WCI 45  
 
STATION/POSITION
 
 
29.2N 88.2W  
 

 
FLZ011-016>039-170100-  
NORTH FLORIDA  
 
CITY SKY/WX TMP DP RH WIND PRES REMARKS
 
MARIANNA FAIR 51 37 58 CALM 30.26R  
TALLAHASSEE FAIR 47 39 74 CALM 30.26R  
PERRY FAIR 49 42 77 CALM 30.27R  
CROSS CITY FAIR 44 40 84 CALM 30.25R  
GAINESVILLE FAIR 48 40 73 CALM 30.27R  
MAYPORT NAS FAIR 52 45 77 CALM 30.24R  
JACKSONVILLE FAIR 48 41 76 CALM 30.24R  
JAX NAS FAIR 56 39 53 NW7 30.25R  
JAX CRAIG FAIR 47 42 83 CALM 30.24R  
ST AUGUSTINE FAIR 49 45 86 CALM 30.25R  
 
STATION/POSITION
 
 
KEATON BEACH  
31.4N 80.9W  
ST AUGUSTINE  
 

 
FLZ040-043>046-052-053-057-058-063-170100-  
CENTRAL FLORIDA  
 
CITY SKY/WX TMP DP RH WIND PRES REMARKS
 
LEESBURG FAIR 49 39 68 CALM 30.24R  
SANFORD FAIR 50 43 77 NW5 30.23R WCI 48  
ORLANDO EXEC FAIR 56 41 57 N5 30.22S  
ORLANDO INTL FAIR 54 43 66 N7 30.22S  
KISSIMMEE FAIR 56 44 64 N6 30.23S  
WINTER HAVEN FAIR 54 42 64 CALM 30.23S  
LAKELAND PTCLDY 52 39 62 CALM 30.23R  
BARTOW FAIR 52 41 66 CALM 30.21S  
 

 
FLZ041-047-054-059-064-170100-  
EAST CENTRAL FLORIDA  
 
CITY SKY/WX TMP DP RH WIND PRES REMARKS
 
DAYTONA BEACH FAIR 50 46 86 CALM 30.24R  
JFK SPACE CTR FAIR 49 44 82 N5 30.22R WCI 48  
TITUSVILLE CLEAR 54 46 76 N8 30.23R  
PATRICK AFB FAIR 55 49 80 N9 30.21R  
MELBOURNE FAIR 54 46 74 N7 30.21R  
VERO BEACH FAIR 54 48 80 N6 30.20R  
FT PIERCE FAIR 55 48 77 CALM 30.20R  
STUART PTCLDY 59 50 72 N7 30.20S  
 
STATION/POSITION
 
 
28.9N 78.5W  
 

 
FLZ042-048>051-055-056-060-061-170100-  
WEST CENTRAL FLORIDA  
 
CITY SKY/WX TMP DP RH WIND PRES REMARKS
 
BROOKSVILLE FAIR 46 40 79 CALM 30.25R  
TAMPA FAIR 54 41 61 NW6 30.24R  
MACDILL AFB FAIR 53 39 60 NE5 30.23R  
ST PETERSBURG FAIR 51 44 77 N8 30.24R  
ST PET-WHITTED FAIR 55 44 66 N7 30.21R  
SARASOTA FAIR 52 44 74 CALM 30.21R  
 
STATION/POSITION
 
 
CEDAR KEY  
VENICE  
 

 
FLZ062-065-066-069-070-075>078-170100-  
SOUTHWEST FLORIDA AND KEYS  
 
CITY SKY/WX TMP DP RH WIND PRES REMARKS
 
PUNTA GORDA FAIR 53 41 63 N8 30.23R  
FT MYERS FAIR 61 40 45 N8 30.20R  
SOUTHWEST INTL FAIR 61 41 47 N9 30.20R  
NAPLES FAIR 62 48 60 NW3 30.18R  
MARATHON FAIR 68 55 63 NW9 30.16R  
KEY WEST NAS FAIR 65 51 60 N12 30.17S  
KEY WEST INTL FAIR 65 52 62 N9 30.17S  
 
STATION/POSITION
 
 
VENICE  
26.0N 85.6W  
SAND KEY  
SOMBRERO KEY  
LONG KEY  
MOLASSES REEF  
 

 
FLZ067-068-071>074-170100-  
SOUTHEAST FLORIDA  
 
CITY SKY/WX TMP DP RH WIND PRES REMARKS
 
W PALM BEACH FAIR 64 54 69 N9 30.18R  
POMPANO BEACH FAIR 66 55 67 N9 30.17R  
FT LAUDER-EXEC FAIR 66 54 65 NW6 30.17R  
FT LAUDERDALE FAIR 65 58 78 N6 30.16R  
PEMBROKE PINES FAIR 65 52 62 NW9 30.18R  
OPA LOCKA FAIR 65 51 60 NW8 30.17R  
MIAMI FAIR 66 52 60 NW6 30.17R  
WEST KENDALL FAIR 66 51 58 N12 30.17R  
HOMESTEAD FAIR 65 52 62 NW8 30.16R  
 
STATION/POSITION
 
 
LAKE WORTH  
FOWEY ROCKS  
SETTLEMENT POINT  
 

 
 
 
CLICK HERE TO GO TO PREVIOUS BULLETINS.

The Nexlab FL Page Main Text Page